GOES 12 [-]

Last updated on Jan. 18, 2020, 4:37 a.m. UTC

1 26871U 01031A   20017.53266689  .00000009  00000-0  00000-0 0  9993
2 26871   7.9727  53.7218 0010073 263.9673  72.2129  0.99134317 67532
UTC
Height (km)
Latitude
Longitude
Inclination
Orbital Period
UTC large
Height (km)
Speed (km/s)
/
Latitude / Longitude
Inclination (degrees)
Orbital Period (minutes)
Azimuth
Elevation
Range (km)
Doppler Factor
iOS Compass Heading
iOS Angle

Next 30 passes for location: Hong Kong

Rise time Rise Azimuth (degrees) Set time Set Azimuth (degrees) Duration Max altitude (degrees)

No matching passes for this satellites